Location: Newark
(45.5167°N, 11.1667°E)
Time: 19:29:46
(UTC+00:00)

Explorer 7 - Pass Details

Date: 22 December 2019
Orbit: 485 x 679 km, 50.3° (Epoch: 24 January)

Event Time Altitude Azimuth Distance (km) Brightness Sun altitude
Rises 12:27:23 0° 264° (W) 2,891 10.8 19.0°
Reaches altitude 10° 12:29:42 10° 268° (W) 2,015 10.0 18.9°
Maximum altitude 12:34:17 55° 347° (NNW) 787 7.6 18.7°
Drops below altitude 10° 12:39:04 10° 66° (ENE) 2,103 9.4 18.4°
Sets 12:41:31 0° 71° (ENE) 3,029 10.2 18.2°
